This is the latest recevied weather packets stored in our database for station/object K7FLA. If no packets are shown the sender has not sent any weather packets the latest 10 day(s).
| Time | Temp. | Humidity | Pressure | Rain* | Wind** | Luminosity | Snow |
|---|---|---|---|---|---|---|---|
| 1787962723 | 36.11° C | 29% | 1093.8 hPa | 0 mm | - | 73 W/m² | - |
| 1787962417 | 36.67° C | 28% | 1093.7 hPa | 0 mm | - | 168 W/m² | - |
| 1787962115 | 36.67° C | 28% | 1093.6 hPa | 0 mm | - | 214 W/m² | - |
| 1787961810 | 36.67° C | 28% | 1093.5 hPa | 0 mm | - | 226 W/m² | - |
| 1787961509 | 37.22° C | 28% | 1093.5 hPa | 0 mm | - | 209 W/m² | - |
| 1787961209 | 37.22° C | 28% | 1093.5 hPa | 0 mm | - | 106 W/m² | - |
| 1787960908 | 37.78° C | 28% | 1093.2 hPa | 0 mm | - | 249 W/m² | - |
| 1787960603 | 37.78° C | 27% | 1093.3 hPa | 0 mm | - | 267 W/m² | - |
| 1787960302 | 38.33° C | 27% | 1093.5 hPa | 0 mm | - | 278 W/m² | - |
| 1787959996 | 38.33° C | 27% | 1093.3 hPa | 0 mm | - | 293 W/m² | - |
| 1787959691 | 38.33° C | 27% | 1093.3 hPa | 0 mm | - | 307 W/m² | - |
| 1787959387 | 38.33° C | 27% | 1093.3 hPa | 0 mm | - | 320 W/m² | - |
| 1787959080 | 38.33° C | 26% | 1093.4 hPa | 0 mm | - | 337 W/m² | - |
| 1787958776 | 38.33° C | 26% | 1093.4 hPa | 0 mm | - | 355 W/m² | - |
| 1787958471 | 38.89° C | 26% | 1093.3 hPa | 0 mm | - | 350 W/m² | - |
| 1787958167 | 38.89° C | 26% | 1093.6 hPa | 0 mm | - | 382 W/m² | - |
| 1787957867 | 38.89° C | 25% | 1093.5 hPa | 0 mm | - | 410 W/m² | - |
| 1787957560 | 38.89° C | 26% | 1093.7 hPa | 0 mm | - | 429 W/m² | - |
| 1787957256 | 38.89° C | 25% | 1093.6 hPa | 0 mm | - | 443 W/m² | - |
| 1787956950 | 38.89° C | 25% | 1093.6 hPa | 0 mm | - | 460 W/m² | - |
| 1787956650 | 39.44° C | 24% | 1093.8 hPa | 0 mm | - | 485 W/m² | - |
| 1787956345 | 39.44° C | 25% | 1093.8 hPa | 0 mm | - | 503 W/m² | - |
| 1787956040 | 39.44° C | 25% | 1093.7 hPa | 0 mm | - | 500 W/m² | - |
| 1787955736 | 39.44° C | 23% | 1093.8 hPa | 0 mm | - | 527 W/m² | - |
| 1787955432 | 40° C | 24% | 1093.9 hPa | 0 mm | - | 523 W/m² | - |
* Rain latest hour (hover to see other rain measurements)
** Current wind speed in m/s (hover to see current wind gust speed)